Regional Weather Roundup
Issued by NWS Newport/Morehead, NC

Current Version | Previous Version | Text Only | Print | Product List | Glossary On
Versions: 1 2 3 4 5 6 7 8 9 10 11 12 13 14 15 16 17 18 19 20 21 22 23 24 25 26 27 28 29 30 31 32 33 34 35 36 37 38 39 40 41 42 43 44 45 46 47 48 49 50
000 ASUS42 KMHX 300610 RWRMHX WEATHER ROUNDUP FOR EASTERN NORTH CAROLINA NATIONAL WEATHER SERVICE NEWPORT/MOREHEAD CITY NC 200 AM EDT SAT AUG 30 2014 NOTE: "FAIR" INDICATES FEW OR NO CLOUDS BELOW 12,000 FEET WITH NO SIGNIFICANT WEATHER AND/OR OBSTRUCTIONS TO VISIBILITY NCZ015>017-031-032-045>047-102-103-300700- NORTH COAST CITY SKY/WX TMP DP RH WIND PRES REMARKS EDENTON CLOUDY 72 68 89 N5 30.19F ELIZABETH CITY CLOUDY 74 65 73 E6 30.20S KITTY HAWK CLOUDY 75 67 76 E5 30.19S HAZE MANTEO CLOUDY 74 68 79 E8 30.19F $$ NCZ045>047-081-094-103-104-300700- CENTRAL COAST CITY SKY/WX TMP DP RH WIND PRES REMARKS FRISCO FAIR 75 75 100 E5 30.17S SWANQUARTER N/A 73 N/A N/A NE6 30.15S $$ NCZ095-097-098-100-101-300700- SOUTHERN COAST CITY SKY/WX TMP DP RH WIND PRES REMARKS BEAUFORT FAIR 76 74 93 CALM 30.16F CEDAR ISLAND N/A 75 N/A N/A SE1 30.21S JACKSONVILLE FAIR 76 74 93 E3 30.16F NEWPORT NOT AVBL PINEY ISLAND FAIR 77 76 96 SE3 30.16F WILMINGTON FAIR 75 71 87 CALM 30.15F $$ NCZ011>013-027>030-043-044-078>080-089-090>093-098-300700- COASTAL PLAIN CITY SKY/WX TMP DP RH WIND PRES REMARKS AHOSKIE FAIR 70 66 86 CALM 30.20F CLINTON FAIR 73 73 100 CALM 30.17S ELIZABETHTOWN FAIR 73 71 93 CALM 30.17R GOLDSBORO FAIR 72 71 98 NE7 30.16S GREENVILLE MOCLDY 70 68 94 CALM 30.20S HAVELOCK FAIR 75 73 93 CALM 30.17F KENANSVILLE NOT AVBL KINSTON FAIR 72 69 92 CALM 30.18F NEW BERN FAIR 75 70 84 CALM 30.18F RICHLANDS FAIR 73 70 88 CALM 30.17F ROANOKE RAPIDS NOT AVBL ROCKY MOUNT CLOUDY 72 67 84 CALM 30.19S WASHINGTON FAIR 69 67 92 CALM 30.19S WHITEVILLE FAIR 73 71 94 CALM 30.16R $$ AMZ130-135-150-152-154-156-158-170-250-252-270-ANZ085-086-088-633-658-670-300700- MARINE OBSERVATIONS STATION/POSITION TIME TEMP WIND PRES WAVE SWELL AIR SEA DIR/SP/G HT/PER HT/PER (UTC) (F) (DEG/KT/KT) (MB) (FT/S) (FT/S) CHESAPEAKE LIGHT 0500 74 110/ 10/ 11 1023.8 BUOY 44014 0600 76 76 80/ 8/ 8 1022.6 3/ 8 2/ 8 DUCK 0600 76 78 70/ 12/ 13 1021.8 2E DUCK 0600 N/A 3/ 8 OREGON INLET 0600 76 79 50/ 8/ 11 1022.1 BUOY 44095 0600 76 N/A 4/ 7 20E OREGON INLET NOT AVBL HATTERAS CG 0600 80 82 100/ 3/ 5 1022.1 DIAMOND BUOY 0600 79 310/ 4/ 4 1021.5 4/ 8 3/ 8 CAPE LOOKOUT 0500 80 90/ 2/ 2 1021.5 BEAUFORT LAB 0600 77 82 20/ 3/ 3 1020.9 30 SE NEW RIVER 0500 82 82 170/ 2/ 2 1021.7 5 SE WRIGHTSVILL 0600 78 81 130/ 4/ 6 N/A BUOY 41002 0459 81 83 120/ 4/ 6 1022.1 3/ 8 3/ 8 BUOY 41004 0600 83 83 180/ 4/ 6 1020.2 3/ 8 2/ 8 $$

USA.gov is the U.S. government's official web portal to all federal, state and local government web resources and services.